When you browse on this site, cookies collect data to enhance your experience and personalize the content and advertising you see.
Visit our Privacy Policy to learn more. By continuing to use the site, you agree to this use of cookies and data.

Hourly Weather Mons

Today, 13 July, Monday

Time Temperature Precipitation Wind Pressure Humidity
00:00 +13°C° 0 mm 2 mps 767 mmHg 84%
01:00 +13°C° 0 mm 2 mps 766 mmHg 86%
02:00 +13°C° 0 mm 2 mps 766 mmHg 87%
03:00 +12°C° 0 mm 2 mps 765 mmHg 88%
04:00 +13°C° 0 mm 1 mps 765 mmHg 84%
05:00 +14°C° 0 mm 1 mps 765 mmHg 81%
06:00 +15°C° 0 mm 1 mps 765 mmHg 77%
07:00 +17°C° 0 mm 2 mps 765 mmHg 70%
08:00 +19°C° 0 mm 2 mps 765 mmHg 62%
09:00 +21°C° 0 mm 2 mps 765 mmHg 55%
10:00 +23°C° 0 mm 2 mps 765 mmHg 52%
11:00 +24°C° 0 mm 2 mps 764 mmHg 49%
12:00 +24°C° 0 mm 2 mps 764 mmHg 46%
13:00 +25°C° 0 mm 2 mps 764 mmHg 44%
14:00 +25°C° 0 mm 2 mps 763 mmHg 43%
15:00 +25°C° 0 mm 2 mps 763 mmHg 41%
16:00 +25°C° 0 mm 2 mps 762 mmHg 46%
17:00 +24°C° 0 mm 2 mps 762 mmHg 51%
18:00 +23°C° 0 mm 2 mps 762 mmHg 56%
19:00 +20°C° 0 mm 2 mps 762 mmHg 62%
20:00 +19°C° 0 mm 1 mps 762 mmHg 67%
21:00 +16°C° 0 mm 1 mps 762 mmHg 72%
22:00 +15°C° 0 mm 1 mps 762 mmHg 75%
23:00 +14°C° 0 mm 1 mps 762 mmHg 79%

Tomorrow, 14 July, Tuesday

Time Temperature Precipitation Wind Pressure Humidity
00:00 +14°C° 0 mm 1 mps 761 mmHg 82%
01:00 +14°C° 0 mm 1 mps 761 mmHg 80%
02:00 +14°C° 0 mm 1 mps 760 mmHg 78%
03:00 +14°C° 0 mm 1 mps 760 mmHg 76%
04:00 +15°C° 0 mm 2 mps 760 mmHg 74%
05:00 +15°C° 0 mm 2 mps 760 mmHg 73%
06:00 +15°C° 0 mm 2 mps 760 mmHg 72%
07:00 +15°C° 0.2 mm 2 mps 760 mmHg 76%
08:00 +14°C° 0.2 mm 3 mps 759 mmHg 80%
09:00 +14°C° 0.2 mm 3 mps 759 mmHg 84%
10:00 +14°C° 0.2 mm 3 mps 759 mmHg 86%
11:00 +14°C° 0.2 mm 4 mps 759 mmHg 88%
12:00 +14°C° 0.2 mm 4 mps 759 mmHg 90%
13:00 +14°C° 0.3 mm 3 mps 759 mmHg 91%
14:00 +14°C° 0.3 mm 3 mps 759 mmHg 92%
15:00 +16°C° 0.3 mm 2 mps 758 mmHg 93%
16:00 +16°C° 0.4 mm 2 mps 758 mmHg 92%
17:00 +17°C° 0.4 mm 2 mps 758 mmHg 90%
18:00 +18°C° 0.4 mm 1 mps 758 mmHg 89%
19:00 +16°C° 0.1 mm 1 mps 758 mmHg 91%
20:00 +16°C° 0.1 mm 1 mps 758 mmHg 92%
21:00 +15°C° 0.1 mm 1 mps 758 mmHg 94%
22:00 +15°C° 0 mm 1 mps 758 mmHg 93%
23:00 +14°C° 0 mm 1 mps 758 mmHg 93%

Day after tomorrow, 15 July, Wednesday

Time Temperature Precipitation Wind Pressure Humidity
00:00 +13°C° 0 mm 1 mps 758 mmHg 93%
01:00 +13°C° 0 mm 1 mps 758 mmHg 93%
02:00 +12°C° 0 mm 1 mps 758 mmHg 93%
03:00 +11°C° 0 mm 1 mps 758 mmHg 92%
04:00 +12°C° 0 mm 1 mps 758 mmHg 90%
05:00 +13°C° 0 mm 1 mps 758 mmHg 88%
06:00 +14°C° 0 mm 1 mps 759 mmHg 86%
07:00 +16°C° 0.1 mm 1 mps 759 mmHg 79%
08:00 +18°C° 0.1 mm 1 mps 759 mmHg 72%
09:00 +20°C° 0.1 mm 1 mps 759 mmHg 64%
10:00 +19°C° 0.2 mm 2 mps 759 mmHg 65%
11:00 +19°C° 0.2 mm 2 mps 759 mmHg 65%
12:00 +19°C° 0.2 mm 3 mps 759 mmHg 66%
13:00 +20°C° 0.1 mm 3 mps 759 mmHg 64%
14:00 +20°C° 0.1 mm 3 mps 759 mmHg 63%
15:00 +20°C° 0.1 mm 3 mps 759 mmHg 61%
16:00 +20°C° 0.1 mm 3 mps 759 mmHg 67%
17:00 +19°C° 0.1 mm 2 mps 759 mmHg 72%
18:00 +18°C° 0.1 mm 2 mps 760 mmHg 78%
19:00 +17°C° 0 mm 2 mps 760 mmHg 81%
20:00 +16°C° 0 mm 2 mps 760 mmHg 83%
21:00 +15°C° 0 mm 1 mps 761 mmHg 86%
22:00 +14°C° 0 mm 1 mps 761 mmHg 88%
23:00 +14°C° 0 mm 1 mps 761 mmHg 90%

16 July, Thursday

Time Temperature Precipitation Wind Pressure Humidity
00:00 +13°C° 0 mm 2 mps 761 mmHg 91%
01:00 +13°C° 0 mm 2 mps 761 mmHg 92%
02:00 +13°C° 0 mm 2 mps 761 mmHg 93%
03:00 +12°C° 0 mm 2 mps 761 mmHg 93%
04:00 +13°C° 0 mm 2 mps 761 mmHg 93%
05:00 +14°C° 0 mm 2 mps 761 mmHg 92%
06:00 +15°C° 0 mm 2 mps 761 mmHg 91%
07:00 +15°C° 0 mm 2 mps 761 mmHg 90%
08:00 +16°C° 0 mm 3 mps 761 mmHg 90%
09:00 +16°C° 0 mm 3 mps 762 mmHg 89%
10:00 +16°C° 0.1 mm 3 mps 762 mmHg 90%
11:00 +16°C° 0.1 mm 3 mps 762 mmHg 90%
12:00 +16°C° 0.1 mm 3 mps 762 mmHg 91%
13:00 +17°C° 0.1 mm 3 mps 762 mmHg 89%
14:00 +18°C° 0.1 mm 3 mps 762 mmHg 87%
15:00 +18°C° 0.1 mm 3 mps 762 mmHg 84%
16:00 +18°C° 0.1 mm 3 mps 762 mmHg 84%
17:00 +18°C° 0.1 mm 3 mps 762 mmHg 84%
18:00 +18°C° 0.1 mm 2 mps 762 mmHg 85%
19:00 +17°C° 0 mm 2 mps 762 mmHg 88%
20:00 +16°C° 0 mm 2 mps 762 mmHg 91%
21:00 +15°C° 0 mm 2 mps 763 mmHg 94%
22:00 +15°C° 0 mm 2 mps 763 mmHg 94%
23:00 +14°C° 0 mm 1 mps 763 mmHg 95%

17 July, Friday

Time Temperature Precipitation Wind Pressure Humidity
00:00 +14°C° 0 mm 1 mps 763 mmHg 96%
01:00 +14°C° 0 mm 1 mps 763 mmHg 96%
02:00 +14°C° 0 mm 1 mps 762 mmHg 97%
03:00 +13°C° 0 mm 1 mps 762 mmHg 97%
04:00 +14°C° 0 mm 1 mps 763 mmHg 95%
05:00 +15°C° 0 mm 1 mps 763 mmHg 94%
06:00 +16°C° 0 mm 1 mps 763 mmHg 92%
07:00 +18°C° 0 mm 1 mps 763 mmHg 87%
08:00 +18°C° 0 mm 2 mps 763 mmHg 82%
09:00 +19°C° 0 mm 2 mps 763 mmHg 77%
10:00 +19°C° 0 mm 2 mps 763 mmHg 74%
11:00 +20°C° 0 mm 2 mps 763 mmHg 70%
12:00 +21°C° 0 mm 2 mps 763 mmHg 67%
13:00 +21°C° 0 mm 2 mps 763 mmHg 66%
14:00 +23°C° 0 mm 2 mps 763 mmHg 65%
15:00 +22°C° 0 mm 3 mps 763 mmHg 64%
16:00 +23°C° 0 mm 2 mps 763 mmHg 66%
17:00 +23°C° 0 mm 2 mps 763 mmHg 68%
18:00 +21°C° 0 mm 2 mps 763 mmHg 70%
19:00 +20°C° 0 mm 2 mps 763 mmHg 76%
20:00 +18°C° 0 mm 2 mps 763 mmHg 82%
21:00 +16°C° 0 mm 1 mps 764 mmHg 89%
22:00 +16°C° 0 mm 1 mps 764 mmHg 90%
23:00 +15°C° 0 mm 1 mps 763 mmHg 91%

18 July, Saturday

Time Temperature Precipitation Wind Pressure Humidity
00:00 +15°C° 0 mm 1 mps 763 mmHg 92%
01:00 +14°C° 0 mm 0 mps 763 mmHg 92%
02:00 +13°C° 0 mm 0 mps 763 mmHg 92%
03:00 +13°C° 0 mm 0 mps 763 mmHg 92%
04:00 +14°C° 0 mm 0 mps 763 mmHg 90%
05:00 +15°C° 0 mm 0 mps 763 mmHg 89%
06:00 +16°C° 0 mm 0 mps 763 mmHg 87%
07:00 +18°C° 0 mm 0 mps 763 mmHg 79%
08:00 +20°C° 0 mm 0 mps 762 mmHg 72%
09:00 +22°C° 0 mm 0 mps 762 mmHg 65%
10:00 +22°C° 0 mm 0 mps 762 mmHg 61%
11:00 +25°C° 0 mm 1 mps 762 mmHg 57%
12:00 +26°C° 0 mm 1 mps 761 mmHg 54%
13:00 +26°C° 0 mm 1 mps 761 mmHg 53%
14:00 +27°C° 0 mm 1 mps 761 mmHg 52%
15:00 +25°C° 0 mm 0 mps 761 mmHg 51%
16:00 +26°C° 0.1 mm 1 mps 760 mmHg 56%
17:00 +26°C° 0.1 mm 1 mps 760 mmHg 62%
18:00 +25°C° 0.1 mm 1 mps 760 mmHg 67%
19:00 +23°C° 0.1 mm 1 mps 760 mmHg 73%
20:00 +22°C° 0.1 mm 1 mps 761 mmHg 80%
21:00 +20°C° 0.1 mm 1 mps 761 mmHg 87%
22:00 +19°C° 0 mm 1 mps 761 mmHg 87%
23:00 +19°C° 0 mm 1 mps 761 mmHg 87%
Show more